Wind_Speed
38 37 38 40 43 47 50 51 52 50 46 44 41 41 39 39 39 40 40 42 42 42 43 44 44 43 42 41 41 41 40 39 39 38 38 38 38 37 36 36 36 36 35 36
39 39 39 39 41 43 46 47 49 50 47 44 43 42 40 39 39 38 39 39 40 40 40 41 42 41 41 40 40 39 38 38 38 38 37 37 37 36 35 35 35 35 35 35
39 38 39 40 40 42 44 46 48 50 47 45 44 42 41 40 39 38 39 40 40 39 39 39 40 40 40 40 39 39 38 37 36 35 35 35 34 34 34 34 34 34 34 35
38 38 39 38 39 39 40 41 45 48 48 47 45 43 42 41 41 40 39 41 41 40 40 39 39 39 39 38 38 37 36 36 35 34 33 33 33 34 34 34 34 34 35 35
37 39 39 37 36 37 39 39 41 45 47 47 47 48 45 42 41 41 41 41 41 41 41 40 39 38 37 37 37 36 35 35 34 34 33 33 33 33 33 33 33 34 34 34
36 37 38 36 35 37 39 40 41 43 45 46 48 48 46 44 44 43 41 41 40 40 40 39 38 37 37 36 36 35 34 33 33 33 33 33 32 32 32 32 32 33 33 33
35 36 36 35 34 38 42 40 40 43 44 46 47 45 44 45 45 45 44 42 40 39 39 38 38 37 36 35 35 34 34 33 33 32 32 32 32 32 32 32 32 32 33 33
35 35 34 33 34 37 38 40 40 42 43 45 45 45 44 45 45 46 45 43 42 40 39 38 38 37 36 35 34 34 33 33 33 32 32 32 32 32 32 32 32 32 32 32
34 34 33 34 35 35 38 40 41 41 42 44 45 44 44 44 44 45 45 44 43 41 40 39 38 37 36 35 35 34 34 33 32 32 32 32 32 31 31 31 31 31 31 32
35 34 34 33 35 37 39 41 42 41 41 43 43 44 44 44 44 44 44 44 43 42 40 39 38 37 36 36 35 34 34 33 33 32 31 31 31 30 30 30 30 31 31 31
35 33 35 33 34 36 39 41 42 42 40 41 42 42 42 43 43 43 43 43 42 41 40 39 38 37 36 36 35 34 33 33 32 31 31 30 30 30 30 30 30 30 30 31
34 33 35 35 35 36 37 39 41 42 41 41 41 40 41 41 41 42 42 42 41 40 40 39 38 37 36 35 34 33 33 32 31 31 30 30 29 29 29 29 29 30 30 30
34 35 34 33 34 34 35 37 39 40 40 39 39 39 41 40 40 40 41 41 40 40 40 39 37 37 36 35 34 33 32 31 31 30 30 29 29 29 29 29 29 29 30 30
33 34 33 32 33 34 35 36 38 38 38 37 38 38 38 38 38 38 38 39 40 39 39 38 36 36 35 34 33 33 32 31 30 30 30 29 29 29 28 29 29 29 30 31
33 33 32 32 33 34 35 35 36 37 36 35 36 37 37 36 37 38 38 39 39 39 37 36 35 34 34 33 33 32 31 31 30 29 29 29 29 29 29 29 29 29 30 31
33 32 32 33 34 35 35 35 34 34 34 34 35 35 35 36 37 37 37 37 37 36 35 35 34 34 33 32 31 31 31 30 30 29 29 29 29 29 29 29 29 30 30 31
30 32 32 32 34 35 34 34 33 33 32 33 33 34 34 35 36 37 37 37 36 35 35 34 33 33 32 31 31 30 30 30 29 29 29 29 29 29 29 29 30 30 31 32
28 31 32 34 34 35 35 34 32 31 30 31 32 32 32 32 33 34 35 35 35 35 35 34 33 33 32 31 31 30 29 28 28 28 28 28 28 28 28 29 29 30 31 32
27 30 32 33 34 34 33 32 31 30 31 31 30 30 30 30 32 33 33 34 33 33 33 33 32 32 31 31 31 30 30 29 28 28 28 28 28 28 29 29 30 30 31 32
27 29 31 32 32 31 30 30 30 30 29 29 30 30 30 31 31 32 32 32 32 31 31 31 31 31 31 30 30 30 30 29 28 28 28 28 28 28 29 29 30 30 31 32
26 28 31 32 31 29 28 29 30 30 28 28 29 29 29 29 30 31 31 31 30 31 30 30 30 30 30 30 30 29 29 28 27 27 27 27 27 28 28 29 29 30 31 32
25 27 29 30 30 29 28 28 29 29 29 29 28 28 27 28 28 28 29 29 29 29 29 29 29 30 30 29 28 27 27 26 26 26 26 27 27 28 28 28 28 29 31 32
25 27 28 28 29 28 28 28 29 29 29 28 27 26 26 27 26 26 28 29 29 29 28 28 28 28 28 28 27 26 26 26 26 26 26 27 27 27 27 28 29 30 32 33
25 26 27 27 27 26 26 27 27 28 28 28 28 27 27 27 26 26 26 27 27 28 28 28 28 27 26 26 26 26 26 26 25 25 25 26 26 26 27 28 29 31 33 34
25 27 28 28 27 26 26 27 28 28 29 28 28 28 27 27 26 26 26 26 26 27 26 26 25 25 25 25 25 25 25 25 24 25 25 25 26 27 28 29 31 32 34 36
25 27 27 27 27 26 27 27 27 27 27 27 27 27 26 26 26 26 26 26 26 25 24 24 24 24 24 24 24 24 24 24 25 25 25 26 27 28 29 31 32 34 36 37
26 26 26 25 26 26 27 27 27 27 28 27 27 26 26 26 26 26 26 26 25 25 24 24 24 23 23 24 24 24 24 25 25 26 26 27 28 29 31 32 34 35 37 39
Wind_Direction
227 226 225 221 220 220 221 223 224 223 222 220 220 220 217 216 217 218 220 222 224 226 228 231 233 235 237 238 239 241 242 244 247 249 252 254 257 259 262 265 267 269 271 273
228 227 227 225 221 221 221 222 223 221 220 218 217 217 217 215 214 216 217 219 222 225 227 229 231 233 235 238 240 241 242 244 246 249 251 254 257 259 261 264 266 268 270 273
228 228 230 227 222 223 222 221 221 221 219 218 217 216 214 213 212 212 214 216 219 222 225 227 229 231 233 236 239 241 242 244 247 249 252 254 256 258 261 263 266 268 270 273
230 228 231 227 226 225 224 222 221 220 218 219 218 216 215 214 213 212 214 216 219 221 224 226 228 230 232 234 237 240 242 244 247 249 252 254 257 259 261 263 266 268 271 273
233 232 231 225 224 223 223 221 219 219 218 218 218 218 216 215 215 214 214 216 218 221 223 226 228 230 231 233 236 238 241 244 246 249 252 255 258 259 261 264 266 268 271 273
232 233 232 225 222 223 224 222 218 218 217 217 218 219 216 216 216 215 215 217 219 221 223 226 228 230 231 233 236 238 242 244 247 249 252 255 258 259 261 264 267 269 272 274
230 232 231 225 222 222 224 220 219 219 218 219 220 219 217 216 217 218 218 218 219 221 223 225 227 230 231 234 236 239 242 245 248 250 253 256 258 259 262 265 268 270 272 274
229 230 229 224 221 221 222 219 219 218 219 219 219 218 217 216 217 218 220 220 220 221 223 225 227 230 232 234 237 239 242 245 248 252 254 256 257 260 263 265 268 270 272 275
229 228 227 224 221 218 217 216 216 217 217 217 217 218 217 216 216 218 220 220 221 222 224 225 227 230 232 234 237 240 243 246 249 252 254 256 258 260 263 266 268 271 274 277
226 224 224 222 218 216 215 215 215 216 217 218 217 218 218 217 217 219 220 220 220 221 222 223 225 229 231 233 236 240 243 246 248 251 253 256 259 261 264 266 269 272 275 278
225 223 222 219 215 215 215 215 215 215 217 218 218 218 217 216 217 218 219 220 220 221 222 222 225 228 230 233 236 239 242 245 248 250 253 256 259 262 265 267 270 273 276 278
223 220 219 214 213 213 212 212 214 215 216 217 218 217 216 215 216 216 217 219 220 220 221 223 224 227 229 232 236 239 241 245 248 251 254 257 260 263 266 268 271 273 276 279
220 218 216 213 212 211 210 208 211 212 213 215 216 216 215 215 216 215 215 217 218 220 222 223 224 226 228 232 235 238 241 244 247 250 254 257 260 263 266 269 272 275 277 280
220 217 214 210 209 211 209 207 207 208 211 214 216 216 216 215 215 214 213 214 216 218 221 223 223 225 228 231 235 237 240 243 247 250 254 257 260 263 266 270 273 275 278 282
218 215 210 206 207 208 206 204 204 206 209 212 214 215 214 213 213 213 213 213 215 217 219 221 222 225 227 230 233 237 240 243 247 251 254 257 260 264 267 269 272 276 280 283
215 213 208 206 206 206 204 202 201 204 206 208 210 211 211 210 210 211 211 212 214 216 218 221 223 225 227 229 232 236 239 242 246 250 254 257 261 264 266 269 273 277 280 284
213 208 205 204 204 204 203 201 201 202 205 207 207 208 208 208 209 209 209 210 213 215 217 220 222 224 225 228 232 235 239 242 247 251 255 258 261 264 267 271 274 278 281 285
207 203 200 199 201 202 201 200 200 201 203 204 206 206 207 208 207 207 208 210 212 215 217 220 222 224 226 228 232 236 239 243 247 252 256 258 261 264 269 272 275 279 283 287
200 199 197 196 197 199 200 201 200 200 201 202 203 204 205 206 204 204 206 209 211 214 217 220 222 224 226 229 233 237 240 244 249 253 256 259 263 267 270 273 277 282 285 289
197 196 196 196 195 195 196 196 198 197 197 200 202 203 204 204 203 203 205 207 209 213 217 221 223 225 228 231 234 238 242 246 250 254 257 260 264 268 272 276 281 285 287 290
195 195 194 192 193 194 195 196 197 197 198 199 199 200 202 203 203 203 205 208 210 214 218 221 224 227 230 233 236 240 244 247 250 254 258 261 266 271 274 278 282 285 288 291
191 192 192 192 193 195 196 196 196 198 200 199 199 200 202 203 203 204 205 208 212 215 218 221 224 227 230 233 236 240 242 246 250 255 259 264 269 272 276 280 282 286 289 292
187 190 192 192 192 194 195 196 198 200 202 202 202 202 202 203 204 206 209 211 213 214 217 220 223 226 230 233 237 240 244 248 252 256 261 266 270 274 278 281 284 288 291 294
187 186 187 188 188 191 194 197 198 200 201 203 205 205 205 205 206 206 208 210 212 213 217 220 223 226 229 233 237 241 245 249 254 259 264 268 272 277 280 283 287 290 294 296
185 185 184 185 187 190 193 194 196 198 200 201 203 203 203 204 205 207 209 212 214 216 219 222 224 227 231 235 238 243 248 253 258 263 267 271 276 279 282 286 290 292 295 298
181 182 185 187 189 190 191 194 197 198 200 200 201 203 204 204 205 208 211 215 217 219 222 225 228 230 234 239 242 246 251 256 261 266 270 275 278 282 285 288 291 294 296 299
180 181 184 188 190 191 192 196 199 201 201 201 203 205 206 207 209 211 215 217 220 223 225 227 229 232 237 240 244 249 254 260 264 269 273 277 281 285 288 290 293 296 298 301
Height
5477 5482 5488 5494 5501 5508 5515 5524 5533 5545 5554 5562 5569 5576 5584 5591 5598 5605 5612 5619 5625 5631 5637 5643 5649 5654 5659 5664 5668 5673 5676 5680 5683 5686 5688 5690 5691 5693 5693 5694 5694 5694 5693 5693
5470 5475 5479 5485 5493 5500 5508 5517 5525 5535 5544 5553 5560 5567 5575 5582 5589 5596 5603 5609 5616 5622 5628 5634 5639 5645 5650 5655 5659 5663 5667 5671 5674 5676 5679 5681 5683 5684 5685 5685 5685 5685 5685 5684
5463 5467 5471 5478 5486 5493 5501 5510 5518 5526 5537 5544 5551 5559 5566 5573 5580 5587 5594 5600 5607 5613 5619 5624 5630 5635 5641 5645 5650 5654 5658 5662 5665 5668 5670 5672 5674 5675 5676 5676 5677 5676 5676 5675
5455 5460 5465 5476 5481 5487 5494 5502 5509 5518 5526 5534 5542 5549 5556 5563 5571 5578 5585 5591 5598 5604 5610 5615 5621 5626 5631 5636 5641 5646 5649 5653 5656 5659 5661 5663 5665 5666 5667 5668 5668 5668 5667 5666
5447 5451 5457 5467 5474 5480 5486 5493 5501 5509 5517 5524 5531 5537 5546 5555 5562 5569 5576 5582 5589 5595 5601 5607 5612 5618 5623 5628 5633 5637 5641 5644 5648 5650 5653 5655 5656 5657 5658 5659 5659 5659 5658 5657
5440 5444 5450 5462 5468 5472 5477 5484 5493 5499 5507 5514 5520 5529 5540 5547 5553 5560 5567 5574 5580 5587 5593 5599 5605 5610 5615 5620 5625 5629 5633 5636 5639 5642 5644 5646 5648 5649 5649 5650 5650 5650 5649 5649
5432 5436 5443 5453 5458 5462 5470 5479 5485 5491 5498 5504 5512 5523 5532 5538 5545 5553 5559 5566 5573 5579 5585 5591 5597 5602 5608 5612 5617 5621 5624 5628 5630 5633 5635 5637 5639 5640 5641 5641 5641 5641 5641 5640
5425 5429 5439 5444 5448 5455 5462 5470 5476 5482 5489 5496 5505 5513 5520 5529 5537 5544 5551 5558 5565 5571 5578 5583 5589 5595 5600 5605 5609 5612 5616 5619 5622 5625 5627 5628 5630 5631 5632 5632 5633 5632 5632 5631
5418 5425 5430 5434 5440 5446 5452 5459 5466 5472 5480 5488 5496 5503 5512 5520 5528 5535 5543 5550 5557 5563 5570 5575 5581 5587 5592 5596 5601 5604 5608 5611 5614 5616 5618 5620 5621 5623 5623 5624 5624 5623 5623 5622
5408 5414 5420 5425 5430 5436 5443 5449 5457 5464 5472 5479 5487 5495 5503 5512 5520 5527 5535 5542 5549 5555 5561 5568 5573 5579 5584 5588 5593 5596 5600 5603 5606 5608 5610 5612 5613 5614 5615 5615 5615 5615 5614 5613
5398 5406 5411 5417 5422 5428 5434 5441 5449 5456 5464 5472 5479 5487 5495 5503 5511 5519 5526 5534 5540 5547 5554 5560 5565 5571 5576 5580 5585 5589 5592 5595 5597 5600 5602 5603 5605 5606 5606 5607 5607 5606 5606 5604
5391 5398 5401 5408 5414 5419 5426 5434 5441 5449 5457 5465 5472 5480 5487 5495 5503 5510 5518 5525 5532 5539 5546 5552 5557 5563 5568 5572 5577 5581 5584 5587 5589 5592 5594 5595 5596 5597 5598 5598 5598 5598 5597 5596
5383 5388 5393 5400 5406 5412 5419 5426 5433 5441 5450 5457 5465 5472 5480 5488 5495 5503 5510 5518 5525 5531 5538 5544 5549 5555 5560 5565 5569 5573 5576 5579 5581 5584 5586 5587 5588 5589 5590 5590 5589 5589 5588 5587
5376 5381 5387 5394 5400 5406 5412 5420 5427 5435 5443 5451 5458 5465 5473 5481 5488 5495 5502 5510 5517 5523 5530 5536 5542 5547 5552 5557 5561 5565 5568 5571 5573 5575 5577 5579 5580 5581 5581 5581 5581 5580 5579 5578
5370 5375 5382 5388 5394 5400 5407 5414 5422 5429 5437 5444 5452 5459 5466 5473 5481 5488 5495 5502 5509 5516 5522 5529 5534 5540 5545 5549 5553 5557 5560 5563 5566 5568 5569 5571 5572 5572 5573 5573 5573 5572 5571 5569
5365 5370 5376 5383 5389 5396 5402 5409 5417 5424 5432 5439 5445 5452 5459 5466 5473 5480 5488 5495 5502 5509 5516 5522 5527 5532 5537 5542 5546 5549 5552 5555 5558 5560 5561 5562 5563 5564 5564 5564 5564 5563 5562 5561
5359 5365 5372 5378 5384 5391 5398 5405 5413 5420 5427 5434 5440 5447 5453 5460 5467 5474 5481 5488 5495 5502 5508 5514 5520 5525 5529 5534 5538 5541 5544 5547 5550 5552 5553 5554 5555 5556 5556 5556 5555 5554 5553 5551
5355 5360 5366 5373 5380 5387 5394 5401 5408 5415 5422 5429 5435 5442 5448 5455 5461 5468 5475 5482 5489 5495 5501 5507 5512 5517 5522 5526 5530 5534 5537 5539 5542 5544 5545 5546 5547 5547 5547 5547 5546 5545 5544 5542
5351 5357 5364 5370 5377 5384 5391 5398 5405 5411 5418 5424 5431 5437 5443 5450 5456 5462 5469 5476 5483 5489 5495 5500 5505 5510 5514 5519 5523 5526 5529 5531 5534 5535 5537 5538 5538 5539 5539 5538 5538 5537 5535 5533
5349 5355 5361 5368 5374 5381 5388 5395 5401 5407 5414 5420 5426 5433 5439 5445 5451 5457 5464 5470 5477 5483 5488 5493 5498 5503 5507 5511 5515 5518 5521 5524 5526 5527 5529 5530 5530 5531 5530 5530 5529 5528 5526 5524
5347 5353 5359 5365 5372 5379 5385 5392 5398 5404 5411 5417 5423 5429 5435 5441 5447 5453 5459 5465 5471 5477 5482 5487 5492 5496 5500 5504 5508 5511 5514 5516 5518 5519 5521 5521 5522 5522 5522 5521 5520 5519 5517 5514
5346 5352 5358 5364 5370 5377 5383 5389 5395 5401 5408 5414 5420 5425 5431 5437 5443 5448 5454 5460 5466 5471 5476 5481 5486 5490 5494 5497 5501 5503 5506 5508 5510 5512 5513 5513 5514 5514 5513 5512 5511 5509 5507 5505
5345 5351 5357 5363 5369 5374 5380 5386 5392 5399 5404 5411 5416 5422 5428 5433 5439 5444 5450 5455 5460 5465 5470 5475 5479 5483 5487 5490 5494 5496 5499 5501 5502 5504 5505 5505 5505 5505 5504 5503 5502 5500 5498 5495
5344 5349 5355 5361 5366 5372 5378 5384 5390 5396 5401 5407 5413 5419 5424 5430 5435 5440 5445 5450 5455 5460 5465 5469 5473 5477 5481 5484 5487 5489 5491 5493 5495 5496 5496 5497 5497 5496 5495 5494 5493 5491 5488 5485
5342 5348 5354 5359 5365 5371 5376 5381 5387 5393 5399 5404 5410 5415 5421 5426 5432 5437 5441 5446 5451 5456 5460 5464 5468 5471 5475 5477 5480 5482 5484 5486 5487 5488 5488 5488 5488 5487 5486 5485 5483 5481 5478 5475
5342 5347 5353 5358 5364 5369 5375 5380 5386 5391 5396 5402 5407 5412 5417 5422 5428 5432 5437 5442 5447 5451 5455 5459 5462 5465 5468 5471 5473 5475 5477 5478 5479 5480 5480 5480 5479 5478 5477 5475 5473 5470 5467 5464
5341 5346 5352 5357 5363 5368 5373 5378 5384 5389 5394 5399 5404 5409 5414 5419 5424 5429 5433 5438 5442 5446 5450 5453 5456 5459 5462 5464 5466 5468 5469 5470 5471 5471 5471 5471 5470 5469 5467 5465 5463 5460 5457 5453